Flag for Norway Weather past 2 weeks in Longyearbyen, Svalbard, Norway

Now
14 °F

Scattered clouds.


Feels Like: 1 °F
Forecast: 13 / 20 °F
Wind: 10 mph from Northwest

Location: Svalbard Lufthavn


UV Index: 0 (Low)

Visibility: N/A


Pressure: 29.30 "Hg

Humidity: 57%

Dew point: 1 °F

Location of LongyearbyenLocation

Historic Weather in Longyearbyen

°F

Longyearbyen temperature yesterday

Maximum temperature yesterday: 12 °F (at 12:50 AM)
Minimum temperature yesterday: 9 °F (at 6:50 AM)
Average temperature yesterday: 11 °F

Past Weeks' High & Low Weather Summary

 TemperatureHumidityPressure
High32 °F (Apr 9, 11:50 AM)86% (Apr 9, 1:50 AM)30.15 "Hg (Apr 9, 1:50 AM)
Low0 °F (Apr 7, 1:50 AM)51% (Apr 5, 5:50 AM)28.77 "Hg (Apr 17, 5:50 AM)
Average14 °F67%29.55 "Hg
* Reported Apr 4 2:50 PM — Apr 19 2:50 PM, Longyearbyen, Weather by CustomWeather, © 2014

Note: Actual official high and low records may vary slightly from our data, if they occured in-between our weather recording intervals... More about our weather records

Advertising

Historic Weather Conditions — Data for Previous 24 hours

 ConditionsComfort  
Time TempWeatherWind HumidityBarometerVisibility
2:50 PM
Apr 19
14 °FScattered clouds.10 mph57%29.30 "HgN/A
1:50 PM14 °FScattered clouds.13 mph62%29.27 "HgN/A
12:50 PM14 °FScattered clouds.16 mph62%29.27 "HgN/A
11:50 AM14 °FScattered clouds.9 mph62%29.24 "HgN/A
10:50 AM12 °FScattered clouds.7 mph62%29.24 "HgN/A
9:50 AM12 °FPassing clouds.7 mph57%29.21 "HgN/A
8:50 AM10 °FPassing clouds.7 mph61%29.24 "HgN/A
7:50 AM10 °FPassing clouds.8 mph67%29.21 "HgN/A
6:50 AM10 °FPassing clouds.10 mph56%29.21 "HgN/A
5:50 AM9 °FPassing clouds.9 mph72%29.21 "HgN/A
4:50 AM10 °FScattered clouds.10 mph67%29.24 "HgN/A
3:50 AM9 °FScattered clouds.13 mph78%29.24 "HgN/A
2:50 AM9 °FScattered clouds.5 mph78%29.24 "HgN/A
1:50 AM10 °FBroken clouds.6 mph72%29.27 "HgN/A
12:50 AM10 °FScattered showers. Broken clouds.7 mph67%29.27 "HgN/A
11:50 PM
Apr 18
12 °FSnow flurries. Broken clouds.8 mph67%29.27 "HgN/A
10:50 PM10 °FScattered showers. Scattered clouds.8 mph61%29.30 "HgN/A
9:50 PM10 °FScattered clouds.8 mph56%29.30 "HgN/A
8:50 PM12 °FPassing clouds.10 mph57%29.30 "HgN/A
7:50 PM12 °FPassing clouds.8 mph62%29.33 "HgN/A
6:50 PM12 °FPassing clouds.8 mph57%29.33 "HgN/A
5:50 PM12 °FPassing clouds.6 mph57%29.36 "HgN/A
4:50 PM12 °FPassing clouds.9 mph57%29.36 "HgN/A
Weather by CustomWeather, © 2014

See weather overview